Location: ???????
(60.4260°N, 46.9069°E)
Time: 05:02:10
(UTC+00:00)

TIMED - Pass Details

Date: 30 March 2020
Orbit: 603 x 604 km, 74.1° (Epoch: 05 June)

Event Time Altitude Azimuth Distance (km) Brightness Sun altitude
Rises 00:32:58 0° 326° (NNW) 2,872 8.0 -13.3°
Reaches altitude 10° 00:35:13 10° 325° (NW) 1,964 7.1 -13.1°
Maximum altitude 00:39:35 74° 241° (WSW) 635 4.4 -12.6°
Drops below altitude 10° 00:43:56 10° 157° (SSE) 1,951 7.0 -12.2°
Sets 00:46:10 0° 156° (SSE) 2,850 7.9 -11.9°
